Theta_e
296 297 297 298 298 291 291 291 290 291 293 292 289 292 296 294 286 286 293 295 292 293 295 296 297 297 297 298 299 299 300 300 300 299 298 298 298 298 298 298 298 299 298 298 299 300 301 301 301 300 301 301 301 301 302 303 303 303 303 302 302 302 302 302 302 303 303 304 304 304 304 304 305 305 305 305 305 305 304 304 304 303 302 302 302 301 302
296 297 298 299 297 296 295 296 297 298 298 297 295 296 296 295 293 295 295 295 293 295 296 297 298 299 299 299 300 300 299 298 298 298 297 297 297 297 297 297 298 298 298 298 298 299 299 299 300 300 300 299 300 300 301 302 302 302 302 301 301 301 301 301 301 302 303 303 302 302 302 302 303 303 303 304 304 304 304 303 303 303 302 302 301 300 300
293 298 299 297 296 295 293 295 296 297 297 296 296 296 295 295 294 295 294 292 291 296 299 298 300 300 300 299 298 298 299 299 298 297 296 296 297 297 297 297 297 297 297 297 298 298 298 298 299 299 299 300 300 300 300 301 301 301 301 301 301 300 300 301 301 301 301 301 301 301 301 301 301 302 302 302 302 302 302 302 302 303 302 301 300 300 299
288 296 295 296 295 293 291 290 292 294 294 292 293 292 295 294 291 292 292 289 288 294 298 298 299 298 298 297 297 298 298 298 298 296 296 296 296 296 296 296 296 296 297 297 297 297 298 298 299 299 299 299 299 299 299 300 300 301 300 300 300 300 300 300 300 300 300 300 300 300 300 300 301 301 301 301 301 300 300 300 301 302 302 302 301 300 299
284 295 296 293 292 290 286 287 290 294 294 294 294 295 296 296 295 290 287 289 294 295 297 296 296 297 297 297 297 297 298 298 298 296 296 296 296 296 296 296 296 295 296 297 297 297 298 298 299 299 299 299 299 299 299 299 300 299 299 299 299 299 300 300 299 300 300 299 299 299 299 300 300 300 300 299 299 299 299 300 299 300 300 301 300 300 299
285 292 293 292 286 281 284 293 296 296 293 292 289 288 290 292 293 291 294 294 296 296 296 295 295 295 296 297 297 299 298 297 296 296 296 296 296 296 296 296 296 296 296 297 298 298 298 299 300 299 300 299 299 300 299 299 298 298 298 298 298 299 299 299 299 299 299 299 298 298 298 299 299 299 298 298 298 299 299 298 298 298 299 299 299 299 298
284 288 288 284 280 282 292 297 298 297 295 293 291 291 291 291 293 293 293 294 294 296 296 296 296 296 296 297 297 298 298 298 296 296 296 295 295 295 295 295 296 296 296 297 297 297 298 299 298 299 299 299 299 299 298 298 297 297 297 297 298 298 298 298 298 298 298 298 298 297 297 297 297 297 297 297 298 299 298 297 297 297 297 298 299 298 297
285 285 283 280 281 290 296 297 297 298 296 295 293 290 292 293 293 294 292 294 295 296 296 296 296 296 296 296 297 297 298 298 297 296 295 296 296 295 296 295 295 296 297 297 296 297 299 298 298 299 298 298 298 297 298 297 296 295 296 296 297 297 297 297 297 297 297 297 296 296 296 296 296 295 296 296 296 298 298 296 297 297 297 298 298 297 297
284 284 284 283 288 290 293 293 293 293 290 293 290 284 288 293 294 294 293 294 295 295 295 295 295 295 295 293 293 297 298 298 299 298 298 298 297 297 296 296 296 297 297 297 297 297 297 297 297 297 297 297 297 296 296 296 295 295 295 295 295 296 297 297 297 297 297 296 296 296 296 295 294 294 294 295 295 297 296 296 295 295 296 297 298 297 297
286 283 282 283 283 280 286 294 298 299 298 296 295 291 287 294 294 295 294 293 293 293 294 293 294 295 291 288 289 295 298 299 298 299 299 298 298 297 297 297 297 296 296 297 298 297 296 297 297 297 296 297 296 295 295 295 294 294 294 294 295 296 296 296 297 297 297 296 295 295 295 294 294 294 294 294 294 295 295 295 295 295 296 297 297 297 296
285 284 282 281 280 283 289 292 297 299 298 297 296 290 284 292 294 295 295 293 293 293 292 292 293 291 287 286 289 295 297 297 299 298 297 297 297 296 296 295 295 296 296 297 297 297 296 296 296 296 296 296 295 294 294 294 294 293 293 294 294 295 296 296 296 296 296 296 295 294 294 294 294 293 293 294 294 294 294 294 294 294 296 296 296 296 296
283 284 283 281 284 283 290 295 297 298 298 298 292 282 282 292 294 295 294 293 293 293 293 293 292 290 286 287 290 296 297 298 298 297 296 296 296 296 296 296 296 296 298 297 295 295 295 295 296 296 296 296 296 294 294 293 293 293 293 294 294 295 296 296 296 296 296 296 295 294 293 294 294 293 294 293 293 293 293 293 293 293 293 295 297 297 297
284 284 283 286 287 292 295 295 297 299 301 296 283 281 285 294 294 295 294 294 294 293 292 293 289 291 292 293 295 296 297 297 296 296 297 297 297 296 296 296 297 295 295 295 295 296 296 296 296 296 296 295 294 294 293 293 293 293 294 294 295 295 295 295 296 296 295 295 294 294 294 294 294 294 293 293 292 292 292 292 292 292 292 293 296 295 295
283 283 284 284 287 293 298 298 300 300 294 282 282 287 295 295 294 295 295 294 294 294 293 293 291 292 295 296 296 296 296 295 295 296 296 296 296 296 296 296 296 295 295 295 295 296 296 297 297 296 295 294 294 293 292 292 293 294 295 295 294 294 295 294 295 295 295 295 296 297 295 294 293 293 293 294 293 292 291 291 291 291 291 291 293 293 292
283 282 281 282 281 289 299 298 296 298 286 284 292 294 295 296 295 295 294 294 294 295 293 294 294 294 295 295 295 296 295 295 295 295 294 294 294 294 294 295 296 296 295 295 295 295 296 296 296 296 295 294 293 293 293 293 295 295 295 295 295 294 294 295 295 295 295 295 296 298 296 294 293 293 293 293 292 292 291 290 290 290 290 290 290 291 290
282 282 280 281 287 293 299 296 286 293 293 295 296 295 293 296 295 294 294 295 295 296 294 294 294 295 295 295 296 295 295 295 293 294 294 294 294 293 294 295 295 296 295 295 294 294 295 296 296 296 295 294 293 292 293 294 294 295 294 294 294 293 293 294 294 294 296 296 295 294 295 294 293 293 292 292 292 292 291 290 289 289 289 290 289 289 289
285 283 286 292 295 296 297 298 296 297 298 298 297 296 296 295 295 297 296 295 296 296 295 295 295 294 295 295 296 295 294 294 293 293 293 292 292 293 294 294 295 294 294 293 293 293 293 294 295 295 294 294 293 292 294 294 294 294 294 294 294 294 293 293 292 294 293 295 295 294 293 293 293 293 292 291 291 291 291 290 289 288 289 289 288 288 289
295 295 295 296 296 296 297 298 299 298 297 298 298 296 295 296 297 298 296 296 296 296 296 294 294 295 295 295 295 295 294 293 293 292 292 292 293 293 293 293 293 293 293 292 292 291 292 294 295 295 295 294 293 293 295 295 294 294 295 294 294 293 293 293 293 294 294 293 294 294 293 294 294 293 293 292 291 290 289 289 288 288 288 288 288 288 288
290 285 293 294 294 296 296 296 298 299 299 298 298 297 297 298 298 298 298 296 296 296 296 295 295 295 296 295 295 294 293 291 291 291 291 292 292 292 292 293 293 293 292 292 292 292 291 292 292 295 296 295 295 295 295 295 295 295 294 294 293 292 292 293 293 293 293 293 292 293 293 294 294 294 292 291 291 289 288 288 288 287 287 288 288 288 287
287 288 293 295 296 297 297 297 296 296 297 298 299 299 299 299 299 298 298 297 296 296 296 296 295 295 296 295 293 293 292 291 291 292 292 292 292 292 292 292 293 292 292 291 292 292 292 292 293 293 294 295 295 296 295 296 294 295 294 294 293 291 292 292 292 292 293 291 292 291 293 293 292 293 292 292 289 289 287 288 288 287 287 287 287 287 287
291 294 295 296 297 297 298 298 298 298 298 298 298 299 299 299 298 298 298 298 297 296 295 296 296 295 295 294 293 292 291 291 292 292 292 292 292 292 292 292 292 292 291 292 292 293 293 293 293 294 294 294 296 294 295 295 295 294 293 293 292 292 291 292 292 292 294 293 292 291 292 291 290 289 289 291 290 289 288 287 288 289 288 287 287 287 287
286 288 291 295 289 288 294 296 298 298 299 299 298 298 298 298 297 297 297 297 297 297 297 297 297 295 293 293 292 291 291 292 292 292 292 292 292 292 293 293 293 293 293 292 293 293 293 293 294 294 295 295 295 295 295 295 295 293 293 292 291 291 292 292 292 292 293 292 294 293 290 291 289 290 288 289 289 289 288 288 285 287 289 287 287 286 286
286 292 295 294 295 294 296 297 298 299 299 299 298 297 297 297 297 297 296 296 296 297 297 298 296 294 293 292 291 291 291 292 292 292 292 292 292 292 293 292 292 291 292 294 293 293 293 293 294 294 294 295 295 295 295 295 295 293 293 292 291 291 292 292 291 292 292 292 293 293 292 290 290 289 288 288 289 289 290 289 288 289 288 288 288 288 288
294 296 295 296 295 293 295 298 299 299 300 298 297 298 298 298 297 297 296 296 296 296 297 296 295 294 292 291 291 291 292 292 292 292 292 292 292 292 293 292 292 292 292 292 293 293 293 294 294 294 294 295 295 295 295 295 294 293 293 292 291 291 292 291 292 292 291 292 293 292 290 291 290 290 289 289 289 290 289 289 289 289 288 288 288 288 288
293 297 297 297 297 297 298 298 299 299 300 299 298 298 298 298 298 298 297 297 296 296 295 294 294 293 292 292 292 292 291 292 292 292 293 293 292 292 292 292 291 291 292 292 293 294 294 294 293 294 294 294 295 295 295 295 294 293 293 293 292 291 291 291 291 292 291 291 291 292 291 291 291 291 289 287 287 287 288 289 286 285 286 287 288 288 289
298 297 298 299 298 297 298 298 298 298 299 299 298 299 300 300 299 298 297 297 296 296 295 294 292 292 293 292 292 291 292 292 292 293 292 292 292 292 291 291 292 292 292 292 293 294 293 293 294 293 293 295 295 295 296 294 294 294 294 294 292 291 291 290 291 292 292 291 292 291 291 290 290 290 289 290 288 287 286 285 287 288 288 286 286 288 289
298 299 298 296 295 295 297 295 295 298 299 299 299 298 299 298 298 298 297 296 295 295 294 294 293 293 293 292 292 292 291 291 292 292 292 292 291 292 292 292 293 292 291 292 292 293 293 293 293 293 294 296 296 295 294 296 295 294 293 293 292 289 289 290 290 292 291 292 291 290 290 291 290 289 290 289 287 288 287 286 287 286 286 287 289 288 288
298 298 298 293 292 294 295 297 297 298 299 299 299 298 299 299 298 297 296 295 295 294 294 294 293 292 291 292 291 290 291 291 291 290 291 291 291 292 292 293 293 292 292 291 291 291 293 293 293 293 295 296 295 295 294 294 295 294 292 294 293 292 292 291 291 291 292 291 291 292 291 291 290 289 289 288 288 288 287 287 287 286 286 286 287 290 290
298 298 298 297 297 297 298 298 298 298 298 299 299 298 298 297 296 296 295 294 294 294 293 293 293 292 291 291 291 290 290 290 291 291 291 292 292 292 292 292 292 292 292 292 292 293 293 293 293 293 294 295 294 293 293 293 293 293 292 292 291 291 290 291 292 291 291 291 290 290 289 289 288 289 288 288 288 288 287 287 285 285 284 285 287 288 288
298 298 297 297 298 298 297 296 297 297 297 297 296 296 297 297 295 294 294 293 293 293 293 293 292 291 291 290 290 290 290 291 292 292 292 292 292 292 292 293 293 292 292 292 292 292 293 293 292 292 293 294 294 293 293 292 292 293 294 292 291 290 291 293 293 292 291 290 290 288 288 288 289 288 288 288 288 287 285 285 285 284 284 284 287 284 284
298 298 298 298 298 298 297 296 297 297 297 297 296 295 296 295 294 293 292 292 292 293 293 293 292 291 291 291 291 292 292 292 292 292 292 292 292 292 292 292 291 289 291 291 291 292 292 292 292 292 293 293 293 293 293 291 291 292 291 293 293 290 289 289 289 291 290 288 288 288 289 288 288 286 286 285 286 285 285 285 284 285 284 284 284 285 285
297 297 298 297 297 297 297 297 296 296 295 296 295 294 294 293 292 291 292 292 292 293 293 292 291 291 291 291 292 292 293 292 292 292 292 292 292 290 291 292 292 290 292 292 291 291 291 291 291 292 293 293 293 292 293 292 291 292 290 289 290 291 290 289 289 288 288 287 288 287 286 288 288 287 286 286 286 287 286 284 284 284 284 284 284 285 286
295 294 294 295 296 296 295 296 295 295 295 294 294 293 293 293 293 293 292 292 292 293 293 292 292 292 292 292 293 293 292 292 291 290 289 287 287 289 291 292 292 293 292 292 292 291 292 292 292 294 293 293 293 293 292 291 290 290 290 289 290 290 288 288 288 287 288 286 287 288 288 286 287 288 289 287 286 287 285 285 285 285 285 285 284 284 285
295 295 295 296 296 294 294 295 296 295 295 295 294 294 294 293 293 293 293 292 293 293 293 293 293 293 293 293 292 291 290 289 287 287 286 286 286 289 292 291 293 293 293 293 292 291 291 294 294 294 294 295 293 293 291 291 290 290 291 290 290 290 289 288 287 287 287 287 288 288 287 285 287 288 287 286 287 287 286 285 287 286 285 285 285 285 286
297 297 298 297 298 297 297 296 295 295 294 293 293 293 293 293 294 293 293 293 292 293 294 294 293 293 292 291 290 289 289 288 286 285 285 286 285 287 292 293 293 294 293 292 292 292 293 295 294 293 292 294 295 293 292 291 292 290 290 290 289 289 289 288 288 287 287 287 288 287 286 287 286 288 287 288 288 286 286 286 287 285 285 285 287 285 285
297 297 297 297 297 297 296 295 294 293 293 293 293 293 293 293 293 292 292 293 294 294 295 294 293 291 290 288 287 287 287 286 285 284 284 285 285 286 290 291 292 292 291 292 293 293 295 293 289 289 291 290 292 293 291 291 292 289 289 289 289 289 289 289 289 288 287 287 286 287 286 286 287 285 287 287 287 287 287 287 287 286 285 285 285 286 284
298 298 297 297 295 294 294 294 294 293 293 293 293 293 294 293 293 293 294 294 294 293 294 294 292 291 289 288 288 287 287 286 286 285 285 284 284 286 289 289 290 291 291 291 292 294 291 290 288 288 289 290 291 291 289 289 290 289 288 289 289 290 289 289 289 287 286 286 287 287 286 286 285 286 285 287 286 286 287 286 286 286 285 284 286 286 286
297 297 296 295 295 295 294 294 294 294 294 293 294 293 294 294 294 294 295 294 294 294 295 294 293 291 289 287 286 286 285 285 285 284 283 283 285 287 289 288 289 289 290 289 294 294 291 289 287 288 290 290 290 289 288 288 288 288 288 289 289 290 288 288 287 287 286 287 286 286 286 285 285 286 284 284 286 287 288 287 286 286 286 285 285 285 286
295 296 295 295 294 294 294 294 295 294 294 293 293 293 294 294 293 294 294 294 294 295 295 293 292 290 289 289 287 287 286 284 284 284 284 285 287 288 287 289 291 292 292 293 295 293 290 289 290 291 291 292 292 291 288 285 285 289 288 289 291 289 288 287 287 287 287 287 286 285 286 285 285 286 284 286 286 285 285 286 286 285 285 287 287 286 285
295 295 295 294 294 294 294 294 293 294 293 295 294 293 294 293 294 293 294 294 295 295 295 293 292 290 290 289 289 288 288 287 286 286 286 287 288 288 289 291 293 294 294 290 292 291 289 288 291 294 292 293 292 290 288 285 286 287 289 290 289 288 288 289 289 288 286 286 287 287 285 285 285 285 285 284 285 286 286 285 285 285 285 286 286 287 286
295 295 295 295 294 294 294 294 293 294 294 295 295 295 295 295 294 293 293 294 295 295 295 294 292 291 291 291 290 290 290 289 288 288 289 288 288 288 287 288 291 294 294 292 292 290 289 289 292 291 292 292 292 289 288 286 287 289 288 289 289 286 288 288 288 287 286 287 288 286 286 285 285 285 285 286 285 284 284 285 287 286 286 285 286 286 286
295 295 295 294 294 294 294 294 294 294 293 295 294 294 295 295 294 293 293 294 294 295 295 295 292 293 293 292 292 291 291 290 290 290 290 290 289 288 287 289 292 294 293 291 290 290 290 291 291 289 288 290 290 288 288 288 288 288 288 289 288 286 288 287 288 288 287 286 286 287 286 285 285 285 285 286 285 285 284 284 286 285 285 284 286 287 287
295 295 294 294 294 294 294 294 294 294 292 294 295 295 295 295 295 294 293 294 294 294 295 294 292 292 293 293 293 292 291 291 291 291 291 292 292 292 291 291 293 294 289 291 291 290 291 292 290 288 288 289 289 287 287 288 287 288 288 289 289 287 287 287 288 289 288 287 287 286 285 284 284 284 284 284 284 285 285 285 285 285 285 285 285 286 286
295 295 295 294 294 294 295 294 294 294 293 293 295 295 295 295 295 294 294 294 293 294 294 294 294 294 294 294 293 292 292 292 291 292 291 291 292 293 295 293 292 290 288 290 291 291 291 291 290 290 288 288 287 286 287 288 288 288 288 288 288 287 287 287 287 287 287 286 286 286 285 285 285 284 285 284 284 285 284 285 285 285 284 284 285 285 285
295 295 295 295 294 294 294 294 294 294 294 294 295 295 295 295 295 294 295 294 294 294 293 294 294 294 294 294 293 294 294 294 293 293 290 289 289 291 294 292 292 290 289 290 292 291 291 291 290 288 288 287 286 286 288 288 288 287 287 288 289 287 286 287 287 287 287 287 286 286 285 285 284 285 284 284 285 284 284 284 286 285 284 284 284 284 285
295 295 295 292 295 295 295 294 295 295 295 294 294 294 295 294 295 294 295 295 294 295 295 295 294 294 295 294 294 294 295 295 296 296 295 294 292 294 295 292 292 290 290 289 290 291 290 288 288 287 287 286 286 286 288 288 287 286 287 288 288 288 287 286 286 286 287 287 286 286 286 287 285 285 286 285 285 283 284 285 285 284 284 285 284 285 285
295 295 295 295 295 295 295 295 295 295 294 294 293 293 294 295 294 295 294 295 295 296 295 295 295 295 295 295 294 292 290 290 292 295 296 296 295 293 291 291 290 289 289 290 288 289 287 286 287 286 286 286 286 288 288 287 288 287 287 287 287 288 286 286 287 288 287 287 286 287 287 287 287 287 287 287 286 284 284 284 284 284 285 284 285 285 285
295 295 295 295 296 296 295 295 295 294 294 293 293 293 294 295 295 295 295 295 295 296 296 295 295 296 296 296 295 296 295 292 287 289 293 295 294 293 292 291 291 289 289 289 288 287 286 286 286 286 286 286 287 287 290 289 288 288 287 288 288 288 287 287 287 287 286 286 287 287 287 286 286 286 286 286 285 284 284 284 284 285 284 284 284 284 285
295 295 295 296 296 295 295 295 294 292 293 293 293 293 294 295 295 294 294 295 295 294 294 295 295 295 295 295 296 295 294 293 292 288 292 294 293 292 293 290 288 288 289 290 290 287 286 286 286 286 286 286 286 288 287 288 289 288 287 287 288 287 287 287 287 287 287 288 288 287 286 286 286 286 285 285 285 284 284 284 284 284 284 284 284 285 285
296 296 295 295 295 295 295 293 293 294 294 294 294 293 294 294 293 293 293 293 294 293 293 292 293 294 294 294 293 294 295 294 295 294 294 295 294 293 291 291 290 289 289 290 289 286 285 286 286 286 285 285 287 287 288 290 289 289 289 288 287 286 287 286 287 288 289 288 287 285 285 285 285 286 285 285 284 285 285 284 284 285 286 285 284 284 284
295 295 295 294 294 295 296 295 294 295 295 295 295 294 294 293 293 292 293 293 293 293 293 292 292 294 294 293 293 294 294 294 294 293 292 294 294 291 290 290 290 289 289 290 289 288 285 285 285 285 285 285 286 287 288 289 288 288 287 286 287 285 286 286 286 287 288 286 285 286 285 285 285 286 285 284 286 286 287 287 287 284 283 284 284 284 284
296 296 295 295 295 294 296 296 296 295 295 294 294 293 292 294 293 293 293 291 293 292 292 291 290 292 292 293 292 292 292 293 292 290 291 293 293 292 290 289 290 290 291 291 291 290 287 286 286 285 285 286 286 287 287 288 288 287 287 286 287 285 286 286 286 285 285 286 285 285 286 285 286 286 284 284 284 285 285 285 285 284 284 284 284 284 284
Wind_Speed
4 5 7 6 8 5 11 11 6 8 6 10 10 5 13 10 7 8 12 12 19 15 16 16 16 16 15 14 14 13 12 12 12 12 11 9 9 8 7 5 5 5 4 4 5 5 4 4 4 5 5 4 5 5 6 7 6 5 4 4 4 5 5 5 7 7 6 6 7 8 9 10 10 11 11 10 10 9 8 7 7 9 9 10 12 13 13
6 6 11 10 14 14 13 12 10 7 11 7 5 4 5 10 9 18 18 11 12 12 14 15 14 13 14 13 12 12 13 14 13 12 11 10 8 8 7 6 5 5 4 4 5 6 5 5 5 4 4 4 5 5 5 6 6 6 5 6 7 8 9 8 5 5 6 5 6 6 8 9 9 9 10 10 10 11 12 10 7 7 10 10 12 13 14
4 7 10 13 10 10 11 12 13 13 18 18 13 15 18 24 19 18 18 16 12 4 10 12 12 12 11 13 13 14 13 13 14 13 11 10 9 9 8 7 6 5 4 4 5 6 6 6 6 5 4 4 7 9 7 5 6 7 7 8 9 10 9 9 9 7 4 5 5 6 6 6 7 8 8 8 9 11 12 12 12 9 9 11 12 12 13
2 3 8 5 7 12 14 13 13 12 7 13 5 10 3 15 14 20 18 13 9 7 9 12 12 13 14 15 14 12 11 13 12 12 12 11 9 8 8 6 6 5 4 4 4 4 5 5 6 6 7 7 8 7 6 6 6 7 8 8 9 10 9 8 8 9 8 6 6 5 5 6 7 6 6 7 8 9 11 13 12 12 12 12 11 12 12
1 1 6 2 2 5 7 7 6 7 7 11 12 13 11 12 25 18 14 12 12 14 12 15 12 12 12 11 11 13 13 11 13 13 12 10 9 8 8 7 6 4 4 4 4 4 4 5 6 6 7 7 6 6 8 6 6 6 6 7 8 8 8 8 9 9 9 9 9 11 9 7 6 8 7 6 7 8 11 10 10 12 12 13 13 12 13
2 2 5 2 5 2 2 5 8 2 3 12 15 6 7 5 3 2 1 16 15 15 14 16 14 12 10 9 6 7 11 14 14 13 11 10 9 8 7 6 5 4 4 4 4 4 5 5 6 5 5 5 5 5 7 7 7 5 5 6 7 8 7 8 8 8 9 8 9 10 11 11 10 10 11 9 5 5 6 9 10 10 11 12 12 13 13
1 5 6 6 2 2 2 4 10 10 11 20 18 13 10 6 11 17 18 16 16 14 12 13 11 10 10 10 12 11 10 11 12 12 10 9 9 10 9 7 5 5 4 5 5 6 6 5 5 6 7 6 5 6 5 6 6 6 5 5 7 7 8 7 7 7 8 8 8 9 10 10 11 11 12 11 9 5 7 8 10 10 10 10 11 12 12
3 5 1 4 3 3 1 4 8 9 11 13 22 15 10 7 12 18 16 14 14 15 13 11 11 12 13 13 10 10 11 11 10 10 7 7 9 9 7 6 5 5 5 6 6 5 4 6 5 5 5 5 6 5 5 5 4 4 5 6 6 6 7 7 8 7 8 8 8 8 8 9 10 11 11 11 12 8 5 7 7 7 7 8 9 10 10
5 2 3 3 1 0 4 4 3 2 3 4 4 10 5 4 7 14 17 15 13 13 13 14 13 13 13 12 7 6 9 9 9 8 8 9 10 9 6 6 5 4 4 5 5 5 5 6 6 5 4 4 5 5 5 5 4 5 6 6 5 6 7 7 7 7 8 8 7 6 6 8 10 11 11 11 10 9 7 6 8 8 7 7 7 8 9
5 6 5 3 1 4 7 4 1 1 3 8 6 12 6 6 5 9 15 16 15 15 14 14 14 14 15 10 5 4 8 9 9 8 8 12 11 9 6 5 6 5 5 5 5 6 6 6 6 5 5 5 6 5 5 5 6 5 6 6 5 5 6 6 6 7 7 7 6 6 6 7 8 8 9 8 9 8 9 7 9 8 5 6 6 7 8
6 3 4 2 2 2 4 8 2 3 7 10 5 8 4 5 11 10 15 16 15 16 17 16 15 13 12 8 6 6 8 10 8 7 8 9 10 9 7 5 6 5 5 6 6 7 7 6 4 4 6 7 6 4 4 4 5 5 5 5 5 6 6 6 6 5 5 6 5 5 5 6 6 7 7 8 6 7 7 7 8 9 8 5 6 6 7
3 4 2 2 0 1 4 7 4 5 5 1 3 3 6 11 13 11 13 16 16 15 14 13 12 14 15 12 9 8 9 9 7 6 8 10 10 9 6 6 6 6 6 7 7 7 7 5 5 5 5 5 4 5 5 4 5 5 4 4 5 6 6 5 5 5 4 5 4 4 5 5 5 5 5 5 7 7 7 7 8 9 9 6 9 8 7
6 7 2 1 0 1 2 5 4 4 2 2 4 6 6 14 14 13 12 14 13 14 14 10 9 1 3 11 12 9 9 9 8 9 9 9 9 9 7 6 5 5 5 6 7 7 6 5 4 4 5 4 4 5 5 5 5 5 5 5 5 5 5 5 5 5 4 4 5 4 4 4 4 4 5 5 5 6 6 6 7 9 10 7 8 9 9
6 4 5 2 0 2 0 4 4 4 5 2 6 2 9 18 16 13 13 14 12 12 12 6 4 9 11 11 8 8 10 9 9 9 8 9 8 5 5 7 8 6 6 6 6 6 6 5 4 3 4 5 5 4 4 5 5 5 6 7 5 5 5 4 4 4 4 3 3 4 4 4 5 6 5 5 5 5 6 6 7 8 7 6 6 8 9
3 3 4 2 5 2 2 4 3 0 3 2 4 10 12 12 15 15 12 12 12 13 9 7 12 15 13 10 9 11 11 10 8 7 8 8 7 8 8 7 7 7 6 6 5 5 5 5 3 4 4 6 5 4 5 5 4 5 6 6 5 4 4 4 4 4 3 2 3 4 5 5 5 5 5 6 6 5 5 5 7 7 8 7 5 7 8
5 3 3 3 3 5 2 2 4 1 3 8 11 14 13 11 13 14 12 12 12 10 10 12 14 14 13 10 11 12 11 8 8 9 8 7 6 5 7 8 8 8 7 6 6 5 5 5 3 3 4 4 5 5 5 5 5 5 5 5 5 5 3 2 3 4 3 1 2 4 5 5 5 5 6 5 5 6 6 6 7 8 8 7 6 7 9
1 3 3 2 5 6 6 8 7 9 10 8 8 11 14 15 12 12 11 13 13 12 14 14 14 12 11 13 13 13 10 10 11 11 9 7 5 8 9 8 8 6 7 6 6 6 5 4 3 2 4 4 4 5 2 5 5 5 5 5 5 6 6 5 4 4 4 1 2 4 4 5 5 5 5 4 6 6 6 6 6 7 7 7 7 7 8
9 9 4 5 7 8 8 8 10 12 11 9 10 13 12 8 10 10 11 14 14 14 14 15 11 12 12 13 12 9 9 10 8 7 7 8 8 9 9 8 8 7 7 6 6 5 3 3 4 3 3 3 5 5 5 4 4 4 5 5 6 6 6 6 6 5 7 6 3 3 4 5 5 4 5 5 6 6 6 6 6 6 7 7 8 7 7
5 4 3 9 9 7 9 10 9 10 10 11 9 8 8 10 11 13 13 13 14 14 14 15 13 13 13 12 9 10 10 9 8 9 9 8 9 10 10 9 8 7 6 6 5 5 5 4 4 2 1 4 5 5 5 5 5 5 4 4 5 6 6 6 6 5 6 6 4 3 4 5 6 4 4 5 5 5 6 5 5 6 6 7 8 8 8
4 7 5 8 10 9 8 10 10 10 10 9 8 9 10 12 13 14 14 14 13 13 12 11 15 15 11 10 12 11 9 9 9 7 8 8 8 7 7 7 8 7 6 5 5 5 5 4 5 4 4 3 5 7 5 5 5 5 6 5 4 4 5 5 6 4 6 8 7 3 4 5 6 5 3 4 5 5 4 4 6 6 6 7 7 7 8
8 9 8 10 10 10 9 9 7 8 9 12 13 12 13 13 14 15 13 11 12 10 12 13 13 13 9 11 12 11 10 9 7 8 9 7 7 8 8 6 7 6 5 5 5 5 5 4 4 3 3 4 2 4 4 5 5 5 6 6 5 5 4 4 5 4 6 6 6 3 3 4 4 2 2 2 4 3 1 2 3 4 5 5 5 5 6
7 7 10 12 10 7 6 8 10 12 13 14 14 12 12 12 14 14 13 11 9 12 12 12 11 11 12 12 10 10 9 9 9 8 9 9 10 8 7 7 7 6 5 5 5 6 5 5 4 2 1 3 4 5 4 4 4 5 5 5 4 4 4 6 5 4 4 6 6 6 3 2 2 2 2 4 1 3 1 0 2 1 1 3 2 3 5
7 6 9 4 7 9 7 11 12 14 13 14 14 13 12 12 11 11 13 14 13 13 11 8 9 11 12 11 10 10 9 9 9 9 9 9 8 9 8 8 6 6 5 5 5 6 5 5 4 2 3 4 3 4 5 5 4 4 4 4 4 4 6 6 6 4 4 5 6 5 6 3 2 1 1 1 7 6 4 4 2 2 3 4 5 5 3
8 11 7 8 8 10 11 12 12 12 11 13 13 13 12 12 11 11 11 13 15 12 11 9 8 10 10 9 11 11 10 10 10 9 8 8 7 7 7 7 6 6 5 5 5 5 5 5 4 2 3 4 4 3 4 2 4 3 4 5 6 5 4 3 6 6 3 4 5 5 6 5 5 4 5 6 2 1 1 1 2 3 5 5 6 7 8
11 8 9 9 10 10 10 11 11 10 10 12 12 13 13 13 12 12 13 11 9 13 11 11 10 7 10 11 12 11 10 10 9 10 9 8 8 8 6 6 6 6 5 5 5 5 5 5 4 3 3 4 4 4 1 4 3 3 5 7 6 4 4 3 3 4 3 3 4 4 4 4 4 5 5 5 6 5 1 4 4 4 5 4 6 7 7
12 10 12 12 11 9 9 11 9 9 10 11 10 9 11 11 13 13 12 10 9 8 11 11 9 11 12 12 11 9 10 9 9 9 7 7 7 7 6 7 7 5 4 4 5 6 5 5 5 4 3 1 2 3 2 2 2 5 5 6 5 4 1 2 4 5 3 3 3 3 3 3 4 5 5 4 4 4 4 7 4 3 6 4 6 6 6
12 15 17 14 11 8 8 10 9 10 10 10 11 11 10 10 12 9 8 7 8 11 11 10 11 10 9 8 9 9 10 8 8 8 8 8 8 7 7 8 8 6 5 4 4 6 7 5 4 4 3 1 2 4 5 5 4 5 5 5 4 3 3 3 4 4 4 1 2 2 3 3 4 4 3 4 4 4 3 4 4 4 4 3 2 5 3
10 11 13 15 13 11 9 9 10 10 9 11 11 11 10 10 8 10 9 11 11 9 10 12 11 9 10 9 10 10 10 9 8 7 7 7 6 5 7 8 9 7 6 5 5 4 5 5 4 3 1 0 4 4 4 5 5 5 3 4 3 1 1 3 4 3 2 1 3 4 3 2 3 3 3 4 4 5 2 2 2 3 4 3 1 0 6
8 7 7 8 9 10 10 10 9 9 10 9 8 8 10 10 11 10 10 10 10 11 11 9 10 10 11 9 9 9 8 6 8 8 7 6 6 6 6 6 6 6 6 5 4 5 5 6 5 4 1 1 4 5 4 5 4 4 2 4 4 3 3 2 2 3 4 1 2 2 3 1 3 3 5 3 3 4 3 2 2 4 3 3 4 6 6
8 8 8 9 11 13 13 12 11 10 10 9 8 9 10 11 10 9 9 10 11 11 9 9 11 10 10 9 8 8 7 6 9 8 7 6 6 6 5 5 5 4 5 4 4 5 6 5 5 5 2 2 4 4 4 4 4 4 1 4 4 3 1 0 1 3 3 4 0 3 2 3 3 2 3 2 2 3 2 2 3 4 4 2 4 4 5
9 9 11 12 13 12 12 11 10 11 11 9 9 10 8 8 10 10 10 9 8 10 10 11 11 12 9 8 8 6 6 7 8 8 7 7 6 5 5 5 5 6 5 5 4 4 6 6 5 4 3 4 4 4 3 3 3 4 1 2 2 1 4 3 5 4 4 3 2 2 3 3 3 3 3 3 3 3 2 2 4 4 3 2 2 2 3
13 13 14 13 12 12 12 9 10 10 9 9 10 10 8 10 12 12 9 7 8 10 12 12 12 11 9 8 6 7 8 8 8 7 7 6 6 4 5 4 5 6 5 5 4 4 4 5 5 2 3 5 5 4 3 3 4 5 2 4 1 2 4 5 4 3 3 3 1 4 3 3 2 3 2 3 1 1 1 2 2 1 2 2 1 0 1
14 15 14 13 12 12 11 10 11 11 10 11 9 5 6 9 9 9 8 7 9 10 11 11 10 9 8 7 7 8 8 8 7 6 6 5 4 4 3 3 4 6 6 5 5 4 4 5 4 2 3 5 5 5 4 3 4 4 4 1 2 3 5 4 4 4 4 3 3 2 4 3 4 2 0 1 0 1 1 2 0 1 1 1 2 2 3
11 11 12 13 12 14 15 14 10 10 9 8 8 8 8 8 9 8 7 8 8 8 8 8 9 7 8 7 8 8 9 9 7 7 6 6 5 2 1 1 3 6 5 5 5 5 4 5 5 4 4 6 5 5 4 3 2 3 3 4 5 5 6 3 3 3 3 3 1 1 3 3 3 1 1 2 0 1 1 1 0 1 1 1 2 4 4
7 8 9 10 10 10 10 10 10 10 10 10 9 7 9 9 10 8 8 9 7 7 8 8 6 8 7 8 9 9 10 10 9 8 7 7 6 3 1 0 1 2 4 5 5 5 5 6 5 4 4 4 4 4 4 2 1 2 2 2 4 4 6 2 2 3 2 3 1 3 2 0 3 4 2 0 1 2 1 1 1 1 2 1 1 1 3
9 9 9 10 10 11 10 10 7 7 7 9 8 10 10 11 10 8 10 10 8 6 9 8 6 9 10 10 9 9 9 9 8 7 6 6 6 4 2 1 2 3 4 4 5 4 5 6 9 8 4 3 5 4 4 4 1 1 1 2 3 4 6 1 1 2 3 3 3 2 2 1 2 2 1 1 1 3 1 1 0 1 3 2 1 1 2
10 9 9 8 6 7 8 9 7 7 7 10 9 10 11 10 9 9 10 7 8 5 8 8 9 10 11 10 9 9 9 10 9 8 8 6 5 4 3 3 3 2 3 5 5 4 6 6 9 10 5 5 6 5 4 5 1 0 1 1 2 5 4 1 2 2 4 4 2 1 3 6 3 1 3 0 2 0 0 2 0 1 1 3 1 1 1
10 10 9 8 8 7 6 7 6 7 8 8 8 8 11 10 8 9 10 9 8 6 9 9 10 9 8 7 9 10 9 8 8 7 6 6 5 5 5 4 5 5 5 6 5 8 6 9 11 7 4 4 6 5 4 5 4 1 1 1 2 4 3 1 1 3 4 3 4 3 4 4 4 4 4 4 1 1 0 1 1 0 1 2 3 2 1
7 8 8 7 7 7 8 8 8 7 8 9 8 8 10 10 7 7 9 10 7 8 9 9 9 10 10 9 7 6 7 7 8 8 7 7 5 6 7 7 7 6 8 4 9 9 8 8 5 5 6 5 5 5 6 5 7 1 1 1 2 3 1 3 1 3 3 2 4 3 4 4 4 5 4 4 4 3 3 2 4 3 2 2 1 2 2
7 9 9 7 7 9 9 8 7 8 5 7 9 9 9 8 7 7 8 9 7 11 11 11 10 10 8 8 9 8 7 8 8 8 8 7 5 5 4 5 5 4 1 9 8 7 10 11 7 6 6 7 7 6 5 8 6 3 1 0 2 4 1 1 0 2 3 1 1 2 4 3 4 4 3 3 3 4 4 5 4 5 4 4 3 0 1
8 9 9 8 8 8 9 8 7 9 6 8 9 9 8 8 8 6 6 9 8 12 12 11 11 10 9 9 9 9 8 8 7 8 7 6 5 6 6 7 6 4 4 4 8 9 11 9 7 6 5 8 8 7 7 7 3 2 3 1 1 4 1 2 1 4 3 1 1 2 2 3 4 4 3 5 4 4 3 4 5 5 5 2 0 1 3
9 9 10 8 8 8 8 7 8 9 6 9 9 8 7 11 9 8 5 6 9 11 11 11 13 12 11 10 9 8 8 8 8 7 8 10 10 8 7 8 5 5 8 11 11 11 9 7 5 5 5 6 8 10 10 6 6 3 1 1 2 5 2 1 1 0 2 2 2 3 3 3 3 3 2 4 4 3 3 3 4 5 5 2 1 1 2
11 11 11 9 9 9 9 8 10 9 6 8 10 8 7 11 10 8 5 6 8 11 13 10 12 13 11 10 9 9 9 8 8 8 7 7 8 8 10 8 6 7 10 10 8 7 8 7 7 5 8 9 8 11 10 6 4 2 1 0 1 7 3 4 2 0 1 2 1 2 3 3 2 3 6 4 3 1 2 1 2 3 5 4 2 2 2
11 11 9 9 10 8 9 8 9 9 6 8 9 10 9 10 9 10 7 7 7 9 9 10 10 9 10 10 10 9 8 8 8 7 8 7 6 5 6 7 6 7 12 10 9 8 8 8 6 9 13 13 12 11 6 5 3 2 2 1 2 3 3 3 2 2 2 2 2 3 5 4 2 4 6 4 3 1 2 1 1 1 3 3 2 3 4
11 11 10 10 9 9 10 8 10 10 8 8 7 9 9 8 8 6 8 10 10 9 8 8 9 8 8 10 10 10 9 10 10 9 8 8 8 8 7 6 7 7 10 12 10 10 9 8 9 13 12 13 12 10 6 4 4 4 3 2 3 4 4 2 2 3 3 3 4 4 5 5 4 4 7 5 4 3 3 2 1 1 4 3 4 3 3
10 11 9 11 11 11 10 7 7 7 7 8 6 6 8 7 7 6 9 12 10 10 10 10 9 9 10 9 8 7 7 10 10 11 12 12 11 10 9 11 10 10 16 16 9 9 8 10 12 13 13 14 11 8 5 5 4 4 3 3 3 4 4 5 5 5 4 1 1 2 2 1 1 2 1 4 4 3 3 2 2 3 5 4 3 1 1
10 10 9 9 9 9 9 7 7 8 6 7 8 7 8 10 8 7 6 8 11 11 9 8 8 7 7 8 8 8 6 6 8 9 9 8 10 8 12 17 15 13 11 9 8 8 7 7 10 14 14 13 12 8 7 4 4 4 5 4 4 4 6 6 4 2 2 4 3 2 2 1 1 1 1 1 2 3 4 4 3 4 5 3 2 1 1
11 11 9 9 10 10 9 9 10 10 8 9 9 9 9 7 8 8 7 6 9 11 10 9 8 8 8 8 7 8 7 8 6 5 6 9 8 7 9 9 11 13 13 8 9 8 12 12 13 15 15 13 10 7 7 5 6 5 5 5 4 5 4 2 3 5 4 3 2 1 1 2 2 2 2 1 2 4 4 5 4 4 5 4 3 3 2
10 10 8 8 9 9 9 10 10 8 7 6 7 6 9 10 7 7 7 7 6 7 8 7 8 8 8 9 9 7 6 6 7 7 6 7 8 8 10 11 14 14 11 8 8 7 11 14 14 14 13 10 7 7 6 6 5 5 5 4 4 3 3 4 4 3 2 0 0 1 1 1 2 3 4 3 2 3 4 4 4 4 5 3 3 2 3
9 8 8 8 8 9 9 8 9 8 7 7 7 6 7 9 8 8 7 7 7 7 7 7 7 7 7 7 7 8 9 8 8 6 7 8 5 5 7 8 9 10 10 8 6 7 7 11 11 10 9 6 6 7 5 5 6 6 5 4 3 5 5 5 6 4 0 1 4 3 4 3 3 3 3 3 2 1 1 1 2 3 6 5 4 3 2
9 9 8 8 7 7 8 7 7 8 8 8 8 8 8 8 9 9 8 8 8 9 9 7 7 8 8 8 8 8 8 7 7 8 6 9 8 9 9 7 8 7 7 8 7 8 7 6 7 7 7 7 7 7 6 6 6 6 5 4 4 5 4 4 3 1 2 3 4 4 3 2 1 1 1 1 0 0 1 1 0 2 3 2 1 2 2
8 7 7 7 7 6 7 7 7 8 8 8 9 8 8 9 9 8 8 8 8 9 9 6 5 6 8 8 8 6 5 7 6 6 8 9 9 7 9 10 9 8 8 8 8 7 8 8 8 9 9 8 7 8 7 7 5 5 5 4 4 4 5 6 3 3 4 5 5 3 3 1 0 1 3 3 2 2 2 0 1 2 4 4 4 4 3
Wind_Direction
18 36 17 34 7 217 181 197 205 237 236 217 211 141 157 144 143 168 161 156 134 149 148 145 142 142 141 142 140 136 133 124 120 118 112 107 104 98 95 96 89 86 71 46 27 36 65 71 70 75 68 54 47 40 46 58 58 52 46 40 33 35 43 51 51 51 51 50 47 44 37 31 28 26 21 15 14 16 18 26 34 32 29 24 20 20 19
25 40 52 38 56 44 49 35 33 66 78 41 94 67 141 132 122 131 142 129 118 132 139 137 137 137 135 134 130 128 130 131 127 121 119 116 113 108 103 95 88 84 75 53 39 37 36 42 47 59 76 65 49 43 41 56 58 39 40 31 38 41 40 35 33 42 53 53 50 46 44 42 37 32 28 22 19 20 18 17 23 30 28 27 26 23 18
53 46 62 67 75 76 56 32 32 54 77 69 77 94 91 89 92 106 112 115 108 94 126 128 128 129 127 130 134 137 139 134 128 129 125 119 118 115 107 101 91 80 74 60 47 38 39 44 42 49 58 52 50 44 43 51 58 47 45 43 47 44 40 30 25 27 37 43 44 45 44 38 35 33 30 30 33 30 25 20 16 19 25 28 29 24 21
46 15 78 65 91 80 63 38 25 16 36 86 72 100 136 115 129 125 120 121 133 150 133 125 129 134 138 140 141 139 134 131 129 117 119 120 117 113 109 103 94 86 77 73 63 46 38 37 45 50 52 53 53 44 36 41 50 56 55 54 54 49 41 32 26 22 22 26 29 31 36 34 27 24 23 26 32 34 34 28 21 19 22 25 28 25 20
336 297 73 73 40 47 33 357 347 358 43 96 76 62 49 120 132 128 151 175 149 146 142 132 136 136 137 135 138 133 129 125 119 120 118 116 110 102 103 100 100 95 86 89 88 66 47 43 50 50 60 57 52 48 45 39 51 54 63 65 65 59 45 35 30 26 23 27 34 32 26 18 16 15 15 21 29 33 34 33 28 25 24 24 26 24 20
216 5 11 355 55 73 74 286 288 235 156 102 90 65 88 82 49 131 137 139 138 139 144 138 145 135 133 130 109 107 124 121 115 113 116 117 116 112 105 102 101 98 83 66 75 75 58 49 52 51 56 65 55 56 57 49 47 41 56 63 69 62 50 38 31 28 26 29 35 37 33 27 23 21 19 16 17 28 34 30 32 30 26 28 28 26 22
136 44 21 55 122 180 300 7 75 88 107 98 91 85 72 81 108 109 112 126 134 138 133 129 121 110 102 95 102 105 104 102 108 114 117 117 111 105 104 104 102 99 90 71 64 59 49 46 48 56 47 49 51 47 49 57 50 44 44 65 71 67 56 42 34 29 28 31 37 38 37 33 28 27 19 15 18 20 32 30 27 26 24 24 28 28 24
59 74 60 179 189 270 306 78 102 117 106 105 89 68 52 70 111 119 119 127 130 133 130 120 115 108 98 87 81 96 98 102 110 115 120 117 115 117 122 115 106 101 97 94 85 76 64 54 46 57 65 60 60 49 50 61 57 47 49 66 77 74 64 53 41 32 33 35 38 40 39 38 37 30 24 17 12 12 30 31 29 28 26 28 29 29 24
120 101 75 80 353 234 174 145 193 205 214 252 144 114 90 111 123 123 128 133 137 131 126 122 115 110 98 88 79 82 97 97 103 113 114 114 116 117 120 120 119 114 102 98 100 92 81 68 59 55 59 67 67 58 52 40 44 36 46 54 69 77 73 60 50 43 40 40 39 37 36 43 41 34 27 17 14 7 16 28 27 24 24 22 27 25 21
103 124 116 107 183 195 213 227 143 8 83 105 104 98 108 128 138 137 134 145 142 134 128 124 124 115 104 110 120 107 104 108 108 114 116 114 118 121 119 120 118 105 90 82 84 93 91 80 70 56 50 55 59 55 49 43 44 44 52 54 69 79 79 68 60 54 48 43 41 35 39 44 43 41 32 24 17 10 14 16 20 12 8 20 27 22 20
101 103 125 142 181 250 182 199 180 111 125 121 116 73 111 169 151 164 146 142 143 141 138 136 134 129 134 146 154 147 123 123 139 137 118 114 116 116 121 122 110 116 120 109 94 80 74 71 63 65 59 64 61 49 46 52 50 52 57 63 76 86 81 77 67 63 58 51 44 43 45 46 50 44 35 28 16 13 15 19 18 6 2 17 23 17 18
134 130 94 136 216 251 222 169 154 161 163 151 51 106 214 174 158 157 150 146 147 144 140 140 142 149 147 160 167 156 137 146 155 128 117 112 117 117 122 123 128 118 104 89 83 84 79 71 61 53 60 72 66 49 40 50 55 48 41 62 84 86 88 85 80 62 61 56 44 48 46 49 52 49 37 31 23 24 20 21 18 8 7 12 22 14 8
122 110 77 52 323 301 132 156 170 180 148 45 113 203 190 156 150 153 148 145 141 141 140 144 139 73 103 139 146 151 143 135 117 113 119 123 126 137 151 152 124 99 97 105 111 110 101 88 67 51 62 70 60 56 54 53 53 50 34 35 59 87 84 80 82 72 61 66 52 33 51 60 62 46 37 34 25 29 25 24 26 19 16 16 25 17 8
124 128 106 135 83 251 234 199 185 163 94 146 212 246 136 141 144 147 146 140 140 140 142 118 104 125 138 145 136 132 128 121 120 126 131 128 137 143 131 123 109 104 101 95 90 91 97 88 69 51 67 66 57 62 62 57 59 54 31 27 46 80 82 78 83 83 77 57 50 45 50 65 63 48 33 30 28 26 27 26 26 24 18 18 24 20 9
55 53 92 114 146 224 177 154 78 106 177 228 133 112 111 127 134 138 142 141 144 147 141 127 137 139 147 144 137 126 122 131 137 128 117 120 127 124 116 110 110 103 91 87 88 97 97 92 62 45 74 81 68 58 59 52 66 69 52 41 50 65 83 80 93 107 99 87 53 51 56 68 74 60 42 33 21 22 27 26 25 20 16 13 17 19 13
135 149 153 194 225 160 222 181 172 164 135 146 136 127 126 137 139 143 147 147 151 146 135 142 141 143 141 136 129 128 136 137 122 119 125 137 150 139 127 123 116 106 103 98 91 82 86 97 88 49 74 89 89 71 70 70 57 52 54 49 37 35 41 64 50 72 116 97 62 62 69 66 71 69 48 34 26 21 22 29 27 23 14 12 12 15 11
146 164 153 130 84 86 85 104 110 106 106 113 119 124 134 144 150 147 148 146 142 142 142 140 141 139 144 137 138 141 147 137 136 144 154 151 136 119 116 115 111 111 115 112 106 100 97 89 101 72 63 93 90 67 38 86 71 70 71 56 39 28 17 12 20 37 56 82 58 71 70 74 72 70 56 42 34 14 24 28 32 28 16 13 14 7 7
89 59 72 109 80 80 73 74 103 109 105 100 113 124 131 138 140 142 136 136 138 141 143 138 143 141 140 138 143 145 137 136 134 126 120 114 108 106 104 99 98 101 98 96 95 94 84 116 117 100 55 73 85 68 47 47 61 87 95 82 53 39 32 22 10 11 27 26 31 53 68 67 71 82 83 58 48 26 27 32 34 33 20 17 15 9 6
87 82 41 88 98 95 89 93 87 97 109 121 128 129 124 129 125 120 127 132 138 143 145 144 141 141 147 147 146 136 131 125 123 120 119 118 118 117 119 125 122 117 114 108 105 101 86 57 68 74 90 41 84 79 61 55 51 44 53 62 68 53 34 20 14 13 32 25 15 22 52 61 55 58 72 68 58 44 39 35 39 34 25 22 16 10 6
82 133 130 98 97 101 109 109 110 109 115 112 100 103 109 110 113 120 128 133 136 142 141 143 142 148 156 150 138 135 130 129 130 127 121 120 115 119 122 118 112 106 106 112 113 110 103 83 62 46 30 30 95 109 100 75 54 57 55 62 61 50 47 32 17 15 25 21 33 18 41 52 55 36 44 78 70 64 54 50 58 41 35 29 17 3 358
92 92 102 113 100 98 107 112 107 116 116 110 109 109 111 114 119 125 131 137 142 142 139 145 149 152 155 136 133 132 133 129 124 122 119 110 105 99 92 93 103 117 118 115 123 121 120 111 92 61 25 2 45 100 102 99 81 63 63 55 52 43 17 12 11 23 34 28 16 41 74 67 59 91 88 59 107 67 31 90 97 91 69 48 17 355 350
152 161 158 142 134 144 122 115 121 118 117 116 118 119 119 124 128 134 133 129 130 133 146 152 155 145 134 134 134 131 129 127 124 118 109 108 106 103 102 98 98 97 104 117 114 108 102 94 85 80 10 0 61 91 80 103 98 97 94 80 62 27 27 20 355 9 43 33 26 11 63 121 105 52 86 103 58 154 155 207 123 355 90 87 23 353 1
182 157 143 95 101 109 117 119 118 119 121 125 128 132 132 131 132 135 135 134 136 146 154 157 143 136 139 140 130 125 125 125 124 120 117 114 112 114 114 112 111 112 117 108 103 103 112 102 87 62 27 15 5 92 91 71 74 99 98 96 75 40 32 22 8 354 37 42 33 22 14 52 104 157 300 331 23 49 123 177 216 295 324 307 319 345 10
118 137 122 121 125 126 129 121 119 121 127 126 129 133 136 139 137 139 140 148 151 153 152 143 139 141 138 134 126 126 125 125 123 124 125 126 128 129 125 130 132 121 114 104 104 114 117 115 111 81 31 6 18 65 81 87 105 106 113 89 73 41 31 12 20 19 0 42 48 34 12 25 25 36 43 22 352 317 343 323 267 291 296 322 314 323 329
146 137 125 119 112 109 110 115 118 124 129 126 134 142 145 145 143 145 149 153 156 152 149 142 145 138 127 124 124 128 131 133 134 136 137 134 132 131 137 126 121 124 128 125 122 116 113 115 110 91 50 14 24 4 36 61 77 50 74 101 88 66 30 18 26 31 8 18 43 53 27 29 28 31 34 31 32 8 310 260 268 266 280 295 302 293 302
119 112 111 108 104 108 112 111 119 130 125 130 134 136 140 142 146 151 156 157 155 147 138 136 129 124 124 126 129 134 132 138 140 135 130 129 130 132 131 127 126 116 112 115 120 123 121 124 122 110 95 21 355 360 12 48 47 81 99 105 115 96 49 11 30 4 2 19 56 42 38 47 47 41 31 36 33 55 49 12 350 302 267 247 266 316 308
107 116 114 107 110 120 136 137 143 137 131 131 137 141 146 148 150 150 147 138 132 129 125 122 121 123 119 125 122 125 129 131 120 120 126 131 140 151 146 134 128 129 134 126 118 130 129 120 115 113 107 45 10 34 61 43 32 46 114 126 113 106 36 21 33 351 341 7 91 68 47 50 47 52 29 22 36 49 74 55 25 3 353 2 275 254 303
112 122 132 141 148 150 142 134 133 130 134 138 147 154 154 154 148 149 138 132 125 114 115 121 119 110 109 115 116 118 119 122 128 128 124 135 139 130 121 130 139 145 150 153 168 156 130 119 113 108 121 179 76 46 48 38 37 31 66 123 117 165 358 24 6 356 339 165 113 107 84 89 87 85 39 42 20 27 62 63 34 23 4 24 95 265 18
117 113 104 113 122 126 127 127 129 135 140 148 152 154 156 156 154 144 136 134 126 119 123 116 110 116 119 122 124 135 142 135 131 131 134 132 127 127 134 140 147 149 152 162 159 140 136 127 127 112 60 36 82 64 48 30 40 53 93 120 123 96 58 23 323 338 327 277 110 151 132 108 97 59 41 43 17 42 43 44 346 3 45 31 25 2 350
119 119 119 118 122 129 133 140 147 148 151 158 157 158 160 153 141 133 129 124 126 127 125 119 117 120 124 131 140 151 147 145 136 132 128 127 130 139 143 150 129 115 112 111 119 127 121 123 127 135 152 93 98 80 54 38 18 37 161 142 140 131 129 215 306 332 344 292 185 155 81 81 94 86 46 41 22 55 51 9 352 22 40 46 56 32 10
126 121 121 127 132 137 141 147 151 155 159 166 162 161 161 146 135 132 134 133 132 129 126 126 128 130 135 151 162 154 146 132 128 130 129 133 141 157 164 143 140 163 157 153 137 112 125 121 123 129 138 103 91 82 68 29 14 31 57 122 122 310 284 303 308 306 299 306 322 85 79 82 75 78 62 38 23 20 345 7 23 19 56 99 83 44 343
124 126 130 137 143 144 144 153 158 162 167 166 165 169 163 145 144 144 143 136 132 128 130 132 136 143 157 168 154 144 131 130 129 131 138 147 161 165 154 136 158 156 155 140 129 118 115 129 118 138 133 110 101 90 62 17 43 25 347 78 87 228 271 297 301 307 334 12 64 94 126 112 87 83 45 29 25 333 342 48 14 18 83 121 162 210 289
135 139 145 150 149 150 155 164 166 169 170 167 170 163 139 130 130 135 137 135 124 123 134 141 148 154 166 157 144 135 129 131 127 124 124 125 114 81 92 131 139 139 142 141 147 146 122 139 154 159 122 121 109 91 72 68 63 37 343 8 24 312 347 309 332 345 22 44 66 127 163 158 142 107 208 295 208 249 50 79 224 38 24 147 202 231 252
152 156 155 158 157 160 164 167 173 168 167 163 163 151 138 134 136 133 133 130 126 131 137 154 162 159 161 144 130 116 118 112 114 131 140 134 119 78 69 74 142 139 150 150 136 149 140 148 156 175 146 136 138 126 114 85 70 67 32 0 352 350 336 301 348 11 3 12 13 284 174 166 126 126 237 263 270 195 90 152 224 96 79 130 211 232 251
146 153 158 156 157 164 168 168 170 172 166 158 149 131 133 133 135 134 137 135 144 159 159 166 158 148 133 118 128 134 134 142 151 153 154 150 156 155 166 350 348 130 143 157 168 179 184 166 145 131 108 100 138 140 119 109 73 63 53 19 343 346 305 315 26 17 355 333 324 4 12 118 189 232 244 173 177 98 140 185 169 135 150 132 229 248 261
162 165 165 163 167 169 167 171 167 155 147 146 139 140 132 141 139 131 146 151 178 152 151 158 127 110 117 128 130 138 139 144 147 153 155 163 174 161 151 279 266 224 205 202 211 183 168 151 144 137 145 121 108 141 135 135 123 145 98 32 345 318 299 294 3 8 352 2 13 4 280 329 235 243 248 205 152 97 56 348 186 176 168 190 199 318 327
175 170 162 162 158 152 145 150 160 142 144 144 143 147 140 145 141 148 153 155 175 163 151 133 129 132 140 149 151 146 144 149 153 158 170 181 173 150 176 230 273 249 197 202 224 170 158 151 156 165 144 134 136 160 148 140 131 228 75 31 333 323 295 343 30 25 344 312 344 290 346 23 29 314 311 262 131 159 14 3 271 259 157 201 206 153 351
173 166 165 158 164 161 154 153 145 132 131 118 128 136 142 146 149 153 159 166 182 149 142 142 144 142 136 131 136 145 153 156 155 158 163 170 174 163 200 203 239 256 241 228 192 166 167 162 166 160 148 148 151 150 178 155 198 214 86 304 333 330 315 50 49 5 329 319 339 328 35 41 41 28 11 12 13 316 274 324 41 340 340 208 194 192 218
144 137 142 141 137 139 138 136 131 140 134 133 135 139 147 153 161 156 162 179 167 137 134 127 129 129 140 137 133 140 152 160 158 155 160 173 178 169 204 208 221 214 234 210 161 154 154 159 177 171 156 160 158 163 167 174 216 142 248 250 358 308 316 57 49 5 307 334 40 14 52 39 39 29 18 28 41 355 337 352 21 18 353 358 81 206 224
152 148 154 142 136 141 135 142 137 152 153 145 139 149 156 164 174 160 167 178 150 140 135 136 133 136 139 140 142 156 168 167 163 160 166 171 170 196 232 265 252 260 228 137 130 149 165 179 173 206 156 160 159 176 173 212 175 170 205 200 299 256 128 104 127 295 305 15 50 32 76 59 40 33 23 358 22 38 44 36 28 13 350 15 52 124 227
148 147 148 142 146 143 149 155 157 165 160 148 150 159 164 168 176 173 159 162 144 140 143 143 142 145 150 154 161 166 167 171 169 171 165 157 175 199 205 233 249 230 182 179 150 165 174 186 186 190 147 159 173 164 193 201 164 209 153 174 220 228 144 203 247 270 258 212 65 54 123 78 52 55 32 25 7 10 26 43 37 15 16 13 333 13 20
152 147 149 150 153 156 160 164 160 169 170 158 161 169 160 169 173 182 175 167 145 139 148 150 155 158 165 165 162 159 166 175 178 175 168 177 184 191 199 237 224 231 178 178 177 173 173 189 192 148 148 153 152 171 181 181 200 202 135 134 244 232 169 185 186 233 235 168 122 107 135 103 107 106 85 79 64 28 8 19 32 12 350 342 33 23 36
156 158 162 162 163 165 167 162 166 174 168 165 166 172 155 164 164 182 165 158 153 139 151 163 169 163 159 155 158 169 180 182 179 181 195 211 199 183 191 219 223 219 173 173 174 170 176 200 176 149 148 145 162 179 185 191 178 175 154 138 223 268 248 171 193 144 171 156 118 137 161 151 149 145 130 132 139 140 88 74 54 14 9 351 11 36 24
159 161 165 165 168 167 163 161 168 181 172 173 169 170 154 169 173 178 171 158 156 156 144 144 167 166 168 166 167 178 183 179 183 186 189 208 223 228 213 215 228 196 171 165 171 171 188 190 191 165 162 162 170 176 175 184 173 195 182 183 271 222 215 193 208 183 185 179 198 200 188 198 174 169 159 164 170 185 135 180 196 90 59 47 42 41 17
163 165 168 169 165 162 170 172 176 179 174 168 157 169 164 165 184 177 155 161 160 164 167 163 168 181 178 179 179 187 188 185 185 175 175 191 204 230 214 180 170 160 177 166 174 181 190 191 190 175 175 169 170 172 181 178 181 216 228 208 218 244 259 228 196 208 218 225 229 230 208 195 192 190 175 186 184 176 178 177 229 116 110 98 74 52 24
165 167 168 166 168 172 178 173 165 157 158 166 162 171 177 178 182 178 158 163 168 175 182 186 186 180 177 178 181 178 168 188 194 188 189 183 187 209 185 170 182 184 184 181 176 181 183 184 173 168 171 170 169 174 182 179 179 210 234 253 264 276 250 222 206 214 218 228 14 35 34 1 290 294 227 201 210 171 182 192 170 140 137 130 132 131 104
165 170 171 171 169 171 169 167 163 173 168 172 180 186 190 189 190 186 171 168 179 180 183 182 181 186 186 186 185 199 192 172 188 197 205 210 207 198 174 179 184 183 167 175 164 168 164 163 160 164 166 171 169 175 180 179 187 220 227 233 246 258 237 221 210 205 108 109 114 110 103 78 29 314 3 309 224 175 185 181 174 161 154 159 152 140 90
169 174 176 172 170 170 165 166 172 186 182 180 180 176 186 188 182 190 192 159 162 185 184 180 183 192 188 185 191 190 193 191 205 250 198 186 196 179 172 169 178 174 173 161 160 168 162 160 166 167 172 170 174 173 178 184 204 213 223 234 240 254 234 186 116 116 137 145 134 131 14 334 316 297 297 281 236 213 202 186 191 185 174 173 174 164 142
170 174 173 168 169 168 170 172 176 180 185 179 175 175 172 180 183 185 194 188 171 172 185 188 190 190 177 171 174 191 204 175 169 208 204 170 164 168 176 174 166 161 161 157 162 168 175 166 170 172 173 172 176 180 186 191 202 212 225 234 256 238 184 144 153 152 137 151 127 111 108 57 352 356 332 303 267 234 218 213 202 177 174 183 170 159 154
168 167 172 175 174 176 175 170 179 184 182 176 190 188 169 159 169 190 193 192 190 188 195 195 190 189 182 183 180 177 183 187 198 190 155 166 155 155 157 160 164 165 156 151 152 157 179 172 168 170 169 180 189 194 202 202 205 215 221 225 226 200 180 166 158 158 168 140 130 116 92 68 46 7 342 332 323 350 12 243 234 209 179 170 167 174 162
172 175 179 178 176 178 177 175 178 177 182 188 192 190 182 179 183 188 188 180 179 186 201 206 194 193 183 185 182 181 177 182 187 191 144 151 153 155 155 157 154 157 149 146 152 161 167 178 182 179 185 191 197 207 210 208 207 214 211 214 199 202 184 168 169 165 130 135 125 121 117 114 106 55 335 289 238 300 280 256 195 174 179 190 180 160 165
171 168 167 169 172 173 180 187 185 181 186 183 186 182 178 185 186 191 193 187 176 176 187 186 200 201 170 170 169 172 172 172 159 137 133 148 149 153 157 151 153 168 163 159 168 171 174 185 183 186 189 195 205 210 215 217 218 221 228 224 210 211 197 196 162 124 140 150 146 148 139 140 124 327 291 285 284 293 315 316 143 137 141 156 161 150 124